Location: Cucq
(50.4773°N, 1.6202°E)
Time: 00:03:37
(UTC+00:00)

Cosmos 1271 Rocket - Pass Details

Date: 07 August 2020
Orbit: 499 x 545 km, 81.2° (Epoch: 23 September)

Event Time Altitude Azimuth Distance (km) Brightness Sun altitude
Rises 00:38:02 0° 337° (NNW) 2,609 7.2 -22.6°
Reaches altitude 10° 00:40:26 10° 323° (NW) 1,723 5.9 -22.6°
Enters shadow 00:42:53 23° 284° (WNW) 1,115 4.4 -22.5°
